[[{"header":{"parameterUnit":"m.s-1","parameterCategory":1,"la1":30.2991,"la2":30.254,"lo1":-89.0895,"lo2":-89.0444,"dy":0.0017,"dx":0.0017,"nx":28,"ny":28,"refTime":"2024-08-30T21:00:00:Z","depth":0,"parameterNumber":2,"parameterNumberName":"U-component_of_WINDS"},"data":[0,0,0,0,0,0,0,0,0,0,0,0,0,0,0,0,0,0,0,0,0,0,0,0,0,0,0,0,0,0,0,0,0,0,0,0,0,0,0,0,0,0,0,0,0,0,0,0,0,0,0,0,0,0,0,0,0,0,-4.9551,-4.9552,0,-4.9676,-4.9678,-4.9679,-4.9647,-4.9645,-4.9642,-4.964,-4.9764,-4.9769,-4.9774,0,0,0,0,0,0,0,0,0,0,0,0,0,-4.9279,-4.9285,-4.9551,-4.9553,-4.9554,-4.9676,-4.9678,-4.968,-4.9648,-4.9645,-4.9642,-4.9639,-4.9762,-4.9768,-4.9775,0,0,0,0,0,0,0,0,0,0,0,0,0,-4.94,-4.9286,-4.9551,-4.9553,-4.9554,-4.9676,-4.9678,-4.968,-4.9648,-4.9645,-4.9641,-4.9638,-4.9759,-4.9768,-4.9776,-4.9901,0,0,-4.9801,-4.9805,0,0,0,0,0,0,0,0,-4.9393,-4.941,-4.9551,-4.9553,-4.9555,-4.9643,-4.9627,-4.9754,-4.9649,-4.9613,-4.964,-4.9636,-4.9726,-4.9737,-4.9768,-4.9907,-4.9912,-4.9802,-4.9807,-4.9811,-4.9813,0,0,0,0,0,0,0,-4.9385,-4.9405,-4.96,-4.9553,-4.9556,-4.9546,-4.9559,-4.9651,-4.9688,-4.9615,-4.9613,-4.9629,-4.9726,-4.976,-4.9771,-4.9914,-4.9802,-4.9809,-4.9815,-4.9818,-5.016,-5.0164,0,0,0,0,0,0,-4.9376,-4.9398,-4.9596,-4.9604,-4.9464,-4.9554,-4.9569,-4.9618,-4.9687,-4.9694,-4.9632,-4.9627,-4.9748,-4.9761,-4.9775,-4.9924,-4.9811,-4.9819,-4.9823,-5.0156,-5.0161,-5.0165,0,0,0,0,0,0,-4.937,-4.9394,-4.9591,-4.9501,-4.9525,-4.9563,-4.9618,-4.9622,-4.9656,-4.97,-4.9706,-4.966,-4.9745,-4.9763,-4.987,-4.9928,-4.9822,-4.983,-5.0151,-5.0157,-5.0163,-5.0223,0,0,0,0,0,0,-4.9363,-4.9392,-4.9441,-4.9502,-4.953,-4.9685,-4.9622,-4.9628,-4.9671,-4.9666,-4.9728,-4.9734,-4.9744,-4.9858,-4.9878,-4.9937,-4.9836,-5.0146,-5.0154,-5.0161,-5.0216,-5.0231,-5.0243,0,0,0,0,0,-4.9353,-4.9452,-4.9443,-4.9468,-4.9592,-4.9689,-4.9705,-4.9715,-4.9676,-4.9725,-4.9753,-4.9732,-4.9919,-4.9869,-4.9892,-4.9954,-5.0142,-5.0151,-5.016,-5.021,-5.0228,-5.0243,0,0,0,0,0,0,-4.9395,-4.946,-4.9451,-4.9574,-4.9626,-4.9683,-4.9744,-4.9734,-4.9797,-4.9789,-4.9798,-4.9812,-4.992,-4.9949,-4.9891,-5.0078,-5.0025,-5.0039,-5.0055,-5.0072,-5.0085,-5.0074,-4.9843,0,0,0,0,0,-4.9419,-4.9493,-4.9546,-4.9649,-4.9676,-4.9706,-4.9748,-4.9752,-4.9806,-4.9828,-4.9863,-4.9915,-4.9985,-5.0031,-5.0098,-5.0222,-5.0233,-5.0276,-5.029,-5.0301,-5.0311,-5.0376,-5.0395,-5.0195,-5.0195,-5.0195,0,0,-4.9467,-4.9513,-4.9559,-4.9658,-4.9699,-4.9774,-4.9725,-4.9806,-4.9861,-4.984,-4.9941,-4.997,-5.0029,-5.0144,-5.0196,-5.017,-5.037,-5.0313,-5.0321,-5.0325,-5.0388,-5.0407,-5.0423,-5.0201,-5.02,-5.0199,0,0,-4.9594,-4.9638,-4.9727,-4.977,-4.9833,-4.9853,-4.9875,-4.9934,-4.9952,-5.0056,-5.0041,-5.0107,-5.0228,-5.027,-5.0307,-5.0452,-5.0434,-5.0474,-5.0542,-5.0605,-5.0621,-5.0635,-5.0683,-5.07,-5.0485,-5.0485,-5.0485,0,-4.9646,-4.976,-4.9773,-4.9857,-4.99,-4.9887,-4.9976,-5.0016,-5.0098,-5.0127,-5.0099,-5.025,-5.0289,-5.0412,-5.0448,-5.048,-5.0502,-5.0464,-5.0618,-5.0632,-5.0645,-5.0691,-5.071,-5.0489,-5.0489,-5.0488,-5.0488,0,-4.9819,-4.9898,-4.9963,-5.0043,-5.0094,-5.018,-5.0205,-5.0255,-5.0256,-5.0278,-5.0383,-5.043,-5.0505,-5.0536,-5.0537,-5.066,-5.0641,-5.0616,-5.0561,-5.0668,-5.0711,-5.0729,-5.0495,-5.0494,-5.0492,-5.0491,0,0,-4.9971,-5.006,-5.0083,-5.0118,-5.0189,-5.0249,-5.0335,-5.0411,-5.0451,-5.051,-5.0579,-5.0683,-5.066,-5.0702,-5.0708,-5.0765,-5.0873,-5.0732,-5.0733,-5.0753,-5.1007,-5.1022,-5.1043,-5.0864,-5.0868,-5.087,-5.1001,0,-5.01,-5.0251,-5.0266,-5.04,-5.0472,-5.0462,-5.0536,-5.0586,-5.061,-5.0674,-5.07,-5.0772,-5.0738,-5.0763,-5.0819,-5.0848,-5.0923,-5.0839,-5.0925,-5.0928,-5.0906,-5.1066,-5.1082,-5.1203,-5.1018,-5.1021,-5.1023,0,-5.027,-5.0334,-5.0475,-5.0535,-5.0566,-5.0632,-5.0702,-5.0765,-5.0821,-5.0835,-5.0883,-5.0882,-5.0968,-5.0915,-5.1032,-5.0974,-5.1011,-5.1031,-5.1036,-5.104,-5.0978,-5.107,-5.1242,-5.1258,-5.1051,-5.1048,-5.1046,0,-5.0361,-5.0483,-5.0583,-5.0615,-5.0688,-5.0734,-5.0767,-5.0821,-5.0865,-5.0927,-5.0955,-5.1026,-5.1063,-5.1118,-5.1135,-5.1095,-5.1251,-5.1199,-5.1261,-5.1261,-5.129,-5.1287,-5.1466,-5.1322,-5.1322,-5.1322,-5.1321,0,-5.0501,-5.0587,-5.0625,-5.0685,-5.0781,-5.0799,-5.0892,-5.0922,-5.0971,-5.1036,-5.1033,-5.1094,-5.1116,-5.118,-5.1195,-5.1288,-5.1306,-5.1317,-5.1319,-5.1315,-5.1312,-5.1335,-5.1325,-5.1326,-5.1325,-5.1324,-5.1324,0,-5.0617,-5.0646,-5.0754,-5.0816,-5.0833,-5.09,-5.0952,-5.101,-5.1035,-5.1118,-5.1138,-5.1176,-5.1252,-5.1276,-5.1368,-5.1377,-5.1485,-5.1482,-5.1465,-5.1464,-5.1523,-5.1515,-5.1718,-5.1744,-5.1588,-5.159,-5.1591,0,-5.0701,-5.0767,-5.0837,-5.0881,-5.0916,-5.0987,-5.1033,-5.1054,-5.1101,-5.1172,-5.122,-5.1296,-5.1357,-5.1479,-5.1513,-5.1583,-5.1578,-5.1645,-5.1588,-5.1581,-5.1574,-5.1568,-5.1573,-5.1654,-5.1655,-5.1657,-5.1658,0,-5.0847,-5.0859,-5.0926,-5.0998,-5.1053,-5.111,-5.1166,-5.1202,-5.1231,-5.1284,-5.1362,-5.141,-5.1504,-5.1578,-5.165,-5.1681,-5.1673,-5.1676,-5.1693,-5.1687,-5.1673,-5.1677,-5.1489,-5.167,-5.1669,-5.1668,-5.1667,-5.1667,-5.0947,-5.1004,-5.1062,-5.1136,-5.1181,-5.1233,-5.129,-5.1323,-5.1389,-5.1467,-5.1477,-5.156,-5.1615,-5.171,-5.1747,-5.1811,-5.1792,-5.1818,-5.1823,-5.1828,-5.1831,-5.1667,-5.1825,-5.1824,-5.1824,-5.1824,-5.1824,0,-5.1089,-5.1126,-5.1195,-5.1273,-5.1331,-5.1323,-5.1384,-5.1432,-5.1506,-5.1559,-5.162,-5.1709,-5.1782,-5.1824,-5.1896,-5.1939,-5.1937,-5.1957,-5.1951,-5.1958,-5.1846,-5.1822,-5.1957,-5.1957,-5.1957,-5.1957,-5.1957,-5.1957,-5.1169,-5.1265,-5.1284,-5.1401,-5.1438,-5.152,-5.1556,-5.1603,-5.1645,-5.1746,-5.1806,-5.1834,-5.1882,-5.1958,-5.2024,-5.2034,-5.2058,-5.208,-5.2087,-5.198,-5.1966,-5.1953,-5.193,-5.2086,-5.2086,-5.2193,-5.2194,-5.2195]},{"header":{"parameterUnit":"m.s-1","parameterCategory":1,"la1":30.2991,"la2":30.254,"lo1":-89.0895,"lo2":-89.0444,"dy":0.0017,"dx":0.0017,"nx":28,"ny":28,"refTime":"2024-08-30T21:00:00:Z","depth":0,"parameterNumber":3,"parameterNumberName":"V-component_of_WINDS"},"data":[0,0,0,0,0,0,0,0,0,0,0,0,0,0,0,0,0,0,0,0,0,0,0,0,0,0,0,0,0,0,0,0,0,0,0,0,0,0,0,0,0,0,0,0,0,0,0,0,0,0,0,0,0,0,0,0,0,0,2.9736,2.9737,0,2.9786,2.9786,2.9787,2.9725,2.9722,2.972,2.9718,2.9764,2.9768,2.9771,0,0,0,0,0,0,0,0,0,0,0,0,0,2.9583,2.9586,2.9736,2.9737,2.9737,2.9786,2.9786,2.9787,2.9725,2.9722,2.9719,2.9717,2.9763,2.9767,2.9771,0,0,0,0,0,0,0,0,0,0,0,0,0,2.9643,2.9587,2.9736,2.9712,2.9711,2.9785,2.9786,2.9787,2.9726,2.9722,2.9719,2.9716,2.9762,2.9767,2.9772,2.9871,0,0,2.9787,2.9789,0,0,0,0,0,0,0,0,2.9639,2.9648,2.9715,2.9714,2.9713,2.9746,2.9749,2.9815,2.9726,2.972,2.9718,2.9714,2.9761,2.9766,2.9782,2.9873,2.9875,2.9788,2.9791,2.9793,2.9794,0,0,0,0,0,0,0,2.9635,2.9646,2.9756,2.9716,2.9715,2.9698,2.9702,2.9761,2.9759,2.972,2.9716,2.9723,2.9759,2.9777,2.9783,2.9876,2.9788,2.9792,2.9795,2.9797,3.0048,3.0052,0,0,0,0,0,0,2.9635,2.9643,2.9754,2.9757,2.9667,2.9703,2.9708,2.9738,2.9758,2.9758,2.9726,2.972,2.9771,2.9777,2.9784,2.99,2.9793,2.9798,2.98,3.0045,3.0049,3.0053,0,0,0,0,0,0,2.9632,2.9645,2.9752,2.9699,2.9711,2.971,2.9743,2.9741,2.9759,2.9762,2.9761,2.9745,2.9768,2.9777,2.985,2.9901,2.98,2.9804,3.004,3.0046,3.0051,3.0134,0,0,0,0,0,0,2.9627,2.9644,2.9683,2.97,2.9714,2.9818,2.9747,2.9745,2.9769,2.9761,2.978,2.978,2.9766,2.9843,2.9855,2.9906,2.9808,3.0036,3.0043,3.0049,3.0126,3.0141,3.0154,0,0,0,0,0,2.9622,2.9704,2.9686,2.9699,2.9763,2.9822,2.9829,2.9813,2.9773,2.9811,2.9813,2.9779,2.9894,2.9851,2.9864,2.9917,3.0032,3.0041,3.0049,3.012,3.0139,3.0154,0,0,0,0,0,0,2.9691,2.9706,2.9685,2.9775,2.9798,2.9811,2.9858,2.9833,2.9867,2.9858,2.9836,2.984,2.9918,2.9925,2.9876,3.0013,2.9956,2.9967,3.0006,3.0023,3.0037,3.0033,2.9812,0,0,0,0,0,2.9718,2.9766,2.9775,2.9853,2.9865,2.986,2.9885,2.9871,2.9893,2.9901,2.9908,2.9929,2.997,2.9997,3.0035,3.0127,3.013,3.0171,3.0185,3.0196,3.0206,3.0254,3.0272,3.008,3.008,3.008,0,0,2.9771,2.9785,2.9816,2.9867,2.9883,2.9931,2.9869,2.9923,2.9958,2.9909,2.9978,2.9984,3.0006,3.0089,3.0126,3.0097,3.0259,3.0207,3.0216,3.0219,3.0264,3.0282,3.0298,3.0086,3.0085,3.0084,0,0,2.9894,2.991,2.9976,2.9993,3.0019,3.0014,3.0031,3.0048,3.005,3.0119,3.0083,3.0124,3.0195,3.0212,3.0229,3.0358,3.0328,3.0371,3.0443,3.049,3.0505,3.0518,3.0563,3.0579,3.038,3.0381,3.0381,0,2.9957,3.003,3.0013,3.007,3.0093,3.0052,3.0118,3.0135,3.0171,3.0187,3.0155,3.0242,3.0254,3.034,3.0371,3.0387,3.0403,3.0368,3.0504,3.0518,3.053,3.0572,3.0589,3.0386,3.0385,3.0385,3.0384,0,3.0106,3.0157,3.0207,3.0244,3.0272,3.0334,3.0324,3.0355,3.0338,3.0337,3.0407,3.042,3.0459,3.0478,3.0462,3.0562,3.0543,3.0508,3.045,3.0553,3.0592,3.0608,3.0393,3.0391,3.0389,3.0388,0,0,3.0273,3.03,3.0318,3.0334,3.0358,3.0397,3.0455,3.0495,3.052,3.0546,3.0594,3.0654,3.0622,3.0642,3.0628,3.0669,3.0769,3.0629,3.0629,3.0653,3.0877,3.0902,3.0921,3.0749,3.0752,3.0755,3.0875,0,3.0395,3.0498,3.0484,3.0582,3.0628,3.059,3.0641,3.066,3.0661,3.0698,3.0698,3.0741,3.0696,3.0708,3.0748,3.0748,3.0813,3.0739,3.0791,3.0793,3.0786,3.0942,3.0969,3.1082,3.089,3.0892,3.0894,0,3.0551,3.0583,3.0686,3.0703,3.0721,3.0768,3.0802,3.0839,3.086,3.0857,3.088,3.0857,3.0914,3.0856,3.0933,3.0883,3.0904,3.0907,3.0911,3.0914,3.0849,3.0948,3.1117,3.1134,3.0919,3.0917,3.0915,0,3.0661,3.073,3.0801,3.0815,3.0837,3.087,3.088,3.0897,3.0921,3.0951,3.0966,3.1002,3.1021,3.1048,3.1035,3.0994,3.1114,3.1055,3.1112,3.1112,3.1138,3.1136,3.1311,3.1153,3.1153,3.1152,3.1152,0,3.0798,3.0862,3.085,3.0894,3.0964,3.0946,3.1016,3.1021,3.1037,3.1079,3.1048,3.1088,3.1069,3.1107,3.1097,3.1162,3.1171,3.1169,3.1165,3.1171,3.1171,3.1183,3.1175,3.1157,3.1156,3.1155,3.1154,0,3.0932,3.0928,3.1001,3.1016,3.1021,3.1072,3.1083,3.1122,3.112,3.1174,3.1186,3.1182,3.1225,3.1215,3.1263,3.1256,3.1336,3.1323,3.133,3.1326,3.1383,3.1377,3.1571,3.1595,3.1422,3.1424,3.1426,0,3.102,3.1068,3.1088,3.1115,3.1128,3.1171,3.1196,3.118,3.1207,3.1234,3.127,3.131,3.1342,3.1412,3.1413,3.1448,3.1435,3.1501,3.144,3.1444,3.1435,3.1432,3.1436,3.1512,3.1514,3.1516,3.1517,0,3.1175,3.117,3.1207,3.1244,3.1275,3.1303,3.1327,3.135,3.1337,3.1368,3.1412,3.1437,3.1485,3.1525,3.1558,3.1566,3.1539,3.1537,3.1551,3.1557,3.1558,3.1557,3.1361,3.1532,3.153,3.1529,3.1529,3.1528,3.1287,3.1328,3.1349,3.1391,3.1408,3.1432,3.147,3.1473,3.151,3.1549,3.1537,3.1587,3.1605,3.1646,3.1658,3.1696,3.1671,3.1693,3.1698,3.1704,3.171,3.1554,3.1702,3.1702,3.1701,3.1701,3.1701,0,3.144,3.1451,3.149,3.1526,3.1559,3.1532,3.1558,3.1587,3.1632,3.1652,3.1684,3.1734,3.1772,3.1776,3.1812,3.1842,3.183,3.1851,3.1848,3.1851,3.1731,3.1714,3.186,3.186,3.186,3.186,3.186,3.186,3.1523,3.1591,3.1588,3.1663,3.1673,3.1723,3.174,3.1761,3.1776,3.1834,3.1866,3.1869,3.1882,3.1918,3.1952,3.1952,3.1966,3.1992,3.1987,3.1875,3.1859,3.1844,3.1828,3.1996,3.1996,3.2103,3.2104,3.2105]}]]